STARLINK-30235, 57294

Orbit data source: Space-Track

STARLINK-30235, 57294 is a payload satellite owned by SpaceX/Seattle (US) in LEO that was launched on Mon, 10 Jul 2023 UTC via an FALCON 9 launch vehicle from the Air Force Eastern Test Range (AFETR). Payload-class satellites include a variety of spacecraft equipped with specific instruments for various scientific and technological missions. These include communications satellites like Starlink; space stations such as the ISS; scientific satellites like the Hubble; Earth observation satellites from companies like Planet Labs, Umbra, and HawkEye 360; GPS; miniature CubeSats for education and research; and military/defense satellites.

Loading next visibility...
Identifier
57294, 2023-096E
Orbit
LEO
Country
Flag of USUS
Related business
Manufacturer
SpaceX/Seattle
Mission
Operational Commercial Communications
Bus & Motor
STARLINK V2M, Unknown motor
Mass
730 kg wet, ~700 kg dry
Launch date (UTC)
2023-07-10 (3 years ago)
Launch vehicle
FALCON 9
Launch site
Air Force Eastern Test Range (AFETR)
Object type
Payload
Rocket body
Debris
Shape & HBR
Box + 2 Pan, 17.7 m
Radar Cross Section
33.884 m², Large (>1 m²)

Expand to show TLE details & history
Last TLE update: 8 hours ago

TLE from 8 hours ago
0 STARLINK-30235
1 57294U 23096E   26236.58336806  .00070222  00000-0  19259-2 0  9996
2 57294  43.0019 354.3639 0001727 274.2817  26.3510 15.36386496  5864
Epoch: 2026-08-24T14:00Z
TLE epoch observation values (Epoch: 2026-08-24T14:00:03.000Z)
Latitude
-36.10455°
Longitude
120.43491°
Altitude
466.191 km
Speed
7.634 km/s
True Right ascension
20h 13m 14s
True Declination
-35° 56' 02"
Sunlit
Object was in full shadow at epoch
Visualization orbit readout
Latitude
Unknown
Longitude
Unknown
Altitude
Unknown
Speed
Unknown
Apparent Right ascension
Unknown
Apparent Declination
Unknown
Sunlit
N/A
Visualization observer readout
Local Sidereal Time
13:30:15
Azimuth
Unknown
Elevation
Unknown
Doppler factor
Unknown
Orbital elements
Apogee altitude
459.938 km
Perigee altitude
457.577 km
Semi-major axis
6,836.895 km
Eccentricity
0.00017
Inclination
43.0019°
RAAN
354.3639°
Arg. of periapsis
274.2817°
True anomaly
26.35979°
Mean anomaly
26.351°
Eccentric anomaly
26.35539°
Mean motion
3.83932 °/min
Orbital period
93.77 mins
BSTAR
0.0019259
Loading maneuver chart data...
Computing Atmospheric mass density...

Documentation

Showing up to 5 results
|